Regional Weather Roundup
Issued by NWS Cleveland, OH

Home | Current Version | Previous Version | Text Only | Print | Product List | Glossary Off
Versions: 1 2 3 4 5 6 7 8 9 10 11 12 13 14 15 16 17 18 19 20 21 22 23 24 25 26 27 28 29 30 31 32 33 34 35 36 37 38 39 40 41 42 43 44 45 46 47 48 49 50

000
ASUS41 KCLE 250302
RWRCLE
OHIO REGIONAL WEATHER ROUNDUP
NATIONAL WEATHER SERVICE CLEVELAND, OH
1100 PM EDT SUN JUL 24 2016

NOTE: "FAIR" INDICATES FEW OR NO CLOUDS BELOW 12,000 FEET WITH NO
SIGNIFICANT WEATHER AND/OR OBSTRUCTIONS TO VISIBILITY.

OHZ001>008-015>018-024>027-034-035-043-044-250400-
   NORTHWEST OHIO

CITY           SKY/WX    TMP DP  RH WIND       PRES   REMARKS
DEFIANCE       CLEAR     82  74  76 S6        29.92S
FINDLAY        CLEAR     80  73  79 S7        29.94S
TOLEDO EXPRESS CLEAR     76  76 100 S3        29.92S
TOLEDO EXEC    CLEAR     78  75  90 SE7       29.93S
LIMA           CLEAR     79  75  87 S7        29.96R
$$

OHZ009>014-019>023-028>033-038-089-250400-
   NORTHEAST OHIO

CITY           SKY/WX    TMP DP  RH WIND       PRES   REMARKS
CLE-HOPKINS    MOCLDY    80  70  71 S9        29.98R
CLE-LAKEFRONT  PTCLDY    81  70  69 S13       29.94S
CUY CO. ARPT   PTCLDY    81  73  78 S9        29.97R
LORAIN-ELYRIA  CLOUDY    76  71  85 S6        29.97R
ASHTABULA      PTCLDY    74  72  93 S5        29.99R
AKRON-CANTON   MOCLDY    76  72  87 S8        30.01R
WOOSTER        MOCLDY    74  71  91 S3        30.00S
MANSFIELD      CLEAR     76  71  85 SE7       30.00S
YOUNGSTOWN     MOCLDY    74  72  93 S6        30.00S
$$

OHZ042-051>053-060>062-070>072-077>081-250400-
  SOUTHWEST OHIO

CITY           SKY/WX    TMP DP  RH WIND       PRES   REMARKS
CINC-COVINGTON PTCLDY    82  76  81 S7        29.98S
CINC-LUNKEN    CLEAR     81  76  84 CALM      29.97R
HAMILTON       CLEAR     83  74  74 SW3       29.98R
DAYTON         PTCLDY    83  73  72 SW8       29.99R
WRIGHT-PAT AFB CLEAR     81  77  87 CALM      29.97R
DAYTON GENERAL CLEAR     81  71  71 S6        29.98R
WILMINGTON     CLEAR     79  74  84 S7        29.99S
$$

OHZ036-037-039>041-045>050-054>059-063>069-073>076-082>088-250400-
  CENTRAL AND SOUTHEAST OHIO

CITY           SKY/WX    TMP DP  RH WIND       PRES   REMARKS
COLUMBUS       MOCLDY    81  73  76 SE3       29.98R
OSU AIRPORT    CLEAR     80  73  79 CALM      29.99R
BOLTON FIELD   PTCLDY    77  73  89 CALM      29.99S
RICKENBACK AFB PTCLDY    78  74  88 CALM      29.98R
NEWARK         PTCLDY    75  73  93 CALM      29.99R
MARION         CLEAR     76  72  87 S7        29.99R
LANCASTER      CLEAR     75  74  96 S3        29.99S
ZANESVILLE     PTCLDY    79  72  79 CALM      30.00R
NEW PHILLY     MOCLDY    77  73  87 S3        30.00R
$$



USA.gov is the U.S. government's official web portal to all federal, state and local government web resources and services.